STARLINK-36929, 68067

Orbit data source: Space-Track

STARLINK-36929, 68067 is a payload satellite owned by SpaceX/Seattle (US) in LEO that was launched on Mon, 02 Mar 2026 UTC via an FALCON 9 launch vehicle from the Air Force Eastern Test Range (AFETR). Payload-class satellites include a variety of spacecraft equipped with specific instruments for various scientific and technological missions. These include communications satellites like Starlink; space stations such as the ISS; scientific satellites like the Hubble; Earth observation satellites from companies like Planet Labs, Umbra, and HawkEye 360; GPS; miniature CubeSats for education and research; and military/defense satellites.

Loading next visibility...
Identifier
68067, 2026-041AD
Orbit
LEO
Country
Flag of USUS
Related business
Manufacturer
SpaceX/Seattle
Mission
Operational Commercial Communications
Bus & Motor
STARLINK V2MO, Unknown motor
Mass
575 kg wet, ~530 kg dry
Launch date (UTC)
2026-03-02 (4 months ago)
Launch vehicle
FALCON 9
Launch site
Air Force Eastern Test Range (AFETR)
Object type
Payload
Rocket body
Debris
Shape & HBR
Box + 2 Pan, 17.7 m
Radar Cross Section
36.964 m², Large (>1 m²)

Expand to show TLE details & history
Last TLE update: 1 day ago

TLE from 1 day ago
0 STARLINK-36929
1 68067U 26041AD  26170.66058219  .00025235  00000-0  75543-3 0  9997
2 68067  53.1588 293.8930 0001245  81.6881 278.4263 15.34402426 17031
Epoch: 2026-06-19T15:51Z
TLE epoch observation values (Epoch: 2026-06-19T15:51:14.301Z)
Latitude
0.00002°
Longitude
148.19706°
Altitude
463.473 km
Speed
7.636 km/s
True Right ascension
19h 35m 34s
True Declination
0° 00' 00"
Sunlit
Object was in full shadow at epoch
Visualization orbit readout
Latitude
Unknown
Longitude
Unknown
Altitude
Unknown
Speed
Unknown
Apparent Right ascension
Unknown
Apparent Declination
Unknown
Sunlit
N/A
Visualization observer readout
Local Sidereal Time
07:19:01
Azimuth
Unknown
Elevation
Unknown
Doppler factor
Unknown
Orbital elements
Apogee altitude
463.805 km
Perigee altitude
462.101 km
Semi-major axis
6,841.09 km
Eccentricity
0.00012
Inclination
53.1588°
RAAN
293.893°
Arg. of periapsis
81.6881°
True anomaly
278.41219°
Mean anomaly
278.4263°
Eccentric anomaly
278.41924°
Mean motion
3.83579 °/min
Orbital period
93.85 mins
BSTAR
0.00075543
Loading maneuver chart data...
Computing Atmospheric mass density...
Loading historical data...
Loading historical data...
Loading historical data...
Loading historical data...
Loading historical data...
Loading historical data...
Loading historical data...

Documentation

Showing up to 5 results
|